Date String (YYYY-MM-DD hh:mm:ss) UTC,Instrument flags,Ambient pressure (hPa),Sample flow (lpm),Bypass flow (lpm),Sample temperature (°C),Ambient temperature (°C),ASC tube jacket temperature (°C),LED temperature (°C),Box temperature (°C),Sample RH (%),Span deviation,Mass concentration (μg/m³),Mass concentration (μg/m³),Mass concentration (μg/m³)
DateTimeUTC,F1_M11,P_M11,Q1_M11,Q2_M11,T1_M11,T2_M11,T3_M11,T4_M11,T5_M11,U1_M11,ZSPAN_M11,X0_M11,X2_M11,X1_M11
2022-05-28 04:00:00,,0822.1,5.00,0.00,29.3,28.2,00.0,38.1,31.2,11.8,0000.0,0012.46,0003.59,0002.57
2022-05-28 04:01:00,,0822.2,5.01,0.00,29.3,28.3,00.0,38.1,31.2,11.7,0000.0,0013.05,0003.62,0002.58
2022-05-28 04:02:00,,0822.2,4.99,0.00,29.3,28.4,00.0,38.2,31.3,12.4,0000.0,0013.16,0003.64,0002.58
2022-05-28 04:03:00,,0822.2,4.99,0.00,29.4,28.4,00.0,38.2,31.3,12.8,0000.0,0013.06,0003.69,0002.58
2022-05-28 04:04:00,,0822.2,5.01,0.00,29.4,28.5,00.0,38.2,31.3,13.1,0000.0,0011.83,0003.77,0002.58
2022-05-28 04:05:00,,0822.2,5.00,0.00,29.4,28.5,00.0,38.2,31.4,13.4,0000.0,0012.18,0003.78,0002.57
2022-05-28 04:06:00,,0822.2,5.00,0.00,29.5,28.6,00.0,38.2,31.4,14.0,0000.0,0012.97,0003.75,0002.55
2022-05-28 04:07:00,,0822.2,5.00,0.00,29.5,28.6,00.0,38.3,31.4,14.4,0000.0,0013.00,0003.75,0002.53
2022-05-28 04:08:00,,0822.2,5.01,0.00,29.5,28.5,00.0,38.3,31.4,14.3,0000.0,0012.65,0003.72,0002.51
2022-05-28 04:09:00,,0822.2,5.00,0.00,29.5,27.7,00.0,38.2,31.2,14.0,0000.0,0012.18,0003.74,0002.49
2022-05-28 04:10:00,,0822.2,4.99,0.00,29.4,27.1,00.0,38.2,31.0,14.1,0000.0,0011.86,0003.74,0002.48
2022-05-28 04:11:00,,0822.3,5.01,0.00,29.3,27.0,00.0,38.1,31.0,13.9,0000.0,0011.86,0003.73,0002.46
2022-05-28 04:12:00,,0822.3,5.00,0.00,29.2,27.1,00.0,38.1,30.9,13.4,0000.0,0011.67,0003.71,0002.44
2022-05-28 04:13:00,,0822.3,5.00,0.00,29.2,27.2,00.0,38.1,30.9,13.4,0000.0,0011.48,0003.69,0002.43
2022-05-28 04:14:00,,0822.3,5.01,0.00,29.2,27.4,00.0,38.1,31.0,13.6,0000.0,0011.08,0003.67,0002.44
2022-05-28 04:15:00,,0822.3,5.00,0.00,29.2,27.5,00.0,38.1,31.0,13.9,0000.0,0010.96,0003.68,0002.44
2022-05-28 04:16:00,,0822.3,4.99,0.00,29.2,27.7,00.0,38.1,31.0,13.8,0000.0,0010.45,0003.63,0002.45
2022-05-28 04:17:00,,0822.3,5.00,0.00,29.2,27.8,00.0,38.1,31.1,13.5,0000.0,0009.63,0003.61,0002.46
2022-05-28 04:18:00,,0822.3,5.00,0.00,29.2,27.9,00.0,38.1,31.1,13.6,0000.0,0008.53,0003.57,0002.47
2022-05-28 04:19:00,,0822.3,5.01,0.00,29.2,28.0,00.0,38.1,31.1,13.5,0000.0,0009.09,0003.59,0002.50
2022-05-28 04:20:00,,0822.3,4.99,0.00,29.2,28.1,00.0,38.1,31.1,13.4,0000.0,0009.13,0003.62,0002.49
2022-05-28 04:21:00,,0822.4,5.00,0.00,29.3,28.2,00.0,38.1,31.2,13.7,0000.0,0008.93,0003.58,0002.48
2022-05-28 04:22:00,,0822.3,5.00,0.00,29.3,28.2,00.0,38.1,31.2,13.9,0000.0,0008.50,0003.54,0002.49
2022-05-28 04:23:00,,0822.3,5.01,0.00,29.3,28.3,00.0,38.2,31.2,14.1,0000.0,0008.34,0003.53,0002.48
2022-05-28 04:24:00,,0822.3,5.01,0.00,29.3,28.3,00.0,38.2,31.3,14.3,0000.0,0008.71,0003.53,0002.49
2022-05-28 04:25:00,,0822.4,4.99,0.00,29.4,28.4,00.0,38.2,31.3,14.3,0000.0,0009.10,0003.53,0002.49
2022-05-28 04:26:00,,0822.4,4.99,0.00,29.4,28.4,00.0,38.2,31.3,14.4,0000.0,0008.95,0003.47,0002.49
2022-05-28 04:27:00,,0822.4,5.00,0.00,29.4,28.5,00.0,38.2,31.3,14.4,0000.0,0009.20,0003.50,0002.49
2022-05-28 04:28:00,,0822.4,5.00,0.00,29.4,28.5,00.0,38.2,31.4,14.4,0000.0,0010.29,0003.51,0002.49
2022-05-28 04:29:00,,0822.4,5.01,0.00,29.5,28.5,00.0,38.3,31.4,14.5,0000.0,0010.23,0003.52,0002.49
2022-05-28 04:30:00,,0822.4,5.01,0.00,29.5,28.6,00.0,38.3,31.4,14.6,0000.0,0009.56,0003.50,0002.49
2022-05-28 04:31:00,,0822.4,5.00,0.00,29.5,28.6,00.0,38.3,31.4,14.8,0000.0,0009.95,0003.53,0002.50
2022-05-28 04:32:00,,0822.4,5.00,0.00,29.5,28.6,00.0,38.3,31.4,14.7,0000.0,0010.59,0003.58,0002.50
2022-05-28 04:33:00,,0822.5,5.01,0.00,29.5,28.7,00.0,38.3,31.5,14.5,0000.0,0010.77,0003.64,0002.51
2022-05-28 04:34:00,,0822.4,5.01,0.00,29.6,28.7,00.0,38.4,31.5,14.3,0000.0,0010.62,0003.64,0002.51
2022-05-28 04:35:00,,0822.5,5.00,0.00,29.6,28.7,00.0,38.4,31.5,14.2,0000.0,0010.43,0003.65,0002.52
2022-05-28 04:36:00,,0822.5,4.99,0.00,29.6,28.5,00.0,38.4,31.5,14.4,0000.0,0010.10,0003.68,0002.52
2022-05-28 04:37:00,,0822.4,5.01,0.00,29.5,27.6,00.0,38.3,31.2,14.4,0000.0,0010.53,0003.70,0002.52
2022-05-28 04:38:00,,0822.4,5.00,0.00,29.5,27.2,00.0,38.3,31.1,14.2,0000.0,0010.47,0003.66,0002.51
2022-05-28 04:39:00,,0822.4,4.99,0.00,29.4,27.1,00.0,38.3,31.0,14.5,0000.0,0010.20,0003.64,0002.52
2022-05-28 04:40:00,,0822.4,5.00,0.00,29.3,27.2,00.0,38.2,31.0,14.5,0000.0,0010.09,0003.62,0002.51
2022-05-28 04:41:00,,0822.4,5.01,0.00,29.3,27.3,00.0,38.2,31.0,14.4,0000.0,0010.35,0003.61,0002.50
2022-05-28 04:42:00,,0822.4,5.00,0.00,29.3,27.5,00.0,38.2,31.0,14.4,0000.0,0010.03,0003.54,0002.48
2022-05-28 04:43:00,,0822.3,4.99,0.00,29.3,27.6,00.0,38.2,31.1,14.3,0000.0,0009.63,0003.51,0002.48
2022-05-28 04:44:00,,0822.4,5.01,0.00,29.3,27.7,00.0,38.2,31.1,14.3,0000.0,0010.67,0003.49,0002.48
2022-05-28 04:45:00,,0822.4,5.00,0.00,29.3,27.8,00.0,38.2,31.1,14.3,0000.0,0010.82,0003.50,0002.49
2022-05-28 04:46:00,,0822.3,5.01,0.00,29.3,27.9,00.0,38.2,31.1,14.2,0000.0,0011.35,0003.54,0002.49
2022-05-28 04:47:00,,0822.3,5.00,0.00,29.3,28.0,00.0,38.2,31.2,14.2,0000.0,0011.59,0003.51,0002.48
2022-05-28 04:48:00,,0822.3,5.01,0.00,29.3,28.1,00.0,38.2,31.2,14.1,0000.0,0012.03,0003.49,0002.48
2022-05-28 04:49:00,,0822.3,5.00,0.00,29.3,28.2,00.0,38.2,31.2,14.1,0000.0,0011.90,0003.53,0002.48
2022-05-28 04:50:00,,0822.3,5.00,0.00,29.3,28.2,00.0,38.2,31.3,14.1,0000.0,0011.66,0003.54,0002.47
2022-05-28 04:51:00,,0822.3,5.01,0.00,29.4,28.3,00.0,38.2,31.3,14.0,0000.0,0011.14,0003.57,0002.48
2022-05-28 04:52:00,,0822.3,5.00,0.00,29.4,28.4,00.0,38.2,31.3,14.1,0000.0,0011.94,0003.64,0002.51
2022-05-28 04:53:00,,0822.3,5.01,0.00,29.4,28.4,00.0,38.3,31.3,13.9,0000.0,0013.06,0003.68,0002.53
2022-05-28 04:54:00,,0822.4,4.98,0.00,29.4,28.4,00.0,38.3,31.3,13.9,0000.0,0014.30,0003.73,0002.55
2022-05-28 04:55:00,,0822.4,5.01,0.00,29.4,28.5,00.0,38.3,31.3,13.9,0000.0,0013.89,0003.75,0002.58
2022-05-28 04:56:00,,0822.3,5.00,0.00,29.5,28.5,00.0,38.3,31.4,14.0,0000.0,0013.90,0003.77,0002.58
2022-05-28 04:57:00,,0822.3,4.99,0.00,29.5,28.5,00.0,38.3,31.4,13.8,0000.0,0013.52,0003.78,0002.59
2022-05-28 04:58:00,,0822.3,5.00,0.00,29.5,28.6,00.0,38.3,31.4,13.8,0000.0,0013.48,0003.75,0002.60
2022-05-28 04:59:00,,0822.4,5.00,0.00,29.5,28.6,00.0,38.3,31.4,13.7,0000.0,0013.40,0003.78,0002.63
